www.pogodaiklimat.ru

Погода и климат >> Архив погоды >> Германия >> Райнштеттен


ПОГОДА в Райнштеттене

  • Прогноз погоды в Райнштеттене
  • Монитор погоды в Райнштеттене

АРХИВ ПОГОДЫ в Райнштеттене

Время (UTC), дата Ветер
(напр.,м/с)
 
Видим.   Явления Облачность Т
(С)
Тd
(С)
f
(%)
Тe
(С)
Тes
(С)
Комфортность P
(гПа)
Po
(гПа)
Тmin
(С)
Tmax
(С)
R
(мм)
R24
(мм)
S
(см)
07 9.09 ЮЗ 4 10 км в посл. час дождь {морось} 10/10 1500 м
[]
+11.5 +10.5 94 +9 +9 1016.9 1002.7
08 9.09 ЮЗ 5 19 км 10/10 240 м
[]
+11.8 +10.1 89 +9 +9 1017.0 1002.8
09 9.09 ЮЗ 6 35 км {дождь, морось} 9/9 300 м
[]
+13.3 +10.7 84 +11 +11 1017.1 1003.0 0.0
10 9.09 ЮЗ 5-7
{8}
50 км 9/9 1500 м
[]
+14.1 +10.4 78 +12 +13 1016.9 1002.8
11 9.09 ЮЗ 5-7
{8}
30 км 1/1 630 м
[]
+16.2 +11.0 71 +15 +20 1016.1 1002.2
12 9.09 ЮЗ 5 35 км {дождь, морось} 9/9 1050 м
[]
+16.8 +9.4 62 +16 +17 1015.9 1002.0
14 9.09 З 4-6
{7}
50 км 10/0
[]
+17.3 +7.8 54 +17 +19 1015.3 1001.4
15 9.09 ЮЗ 4 45 км 9/0
[]
+17.0 +8.7 58 +17 +18 1015.0 1001.1
16 9.09 ЮЗ 2-3
{5}
55 км 9/0
[]
+17.0 +8.4 57 +17 +18 1014.9 1001.0
17 9.09 ЮЗ 3-3
{4}
55 км 1/0
[]
+16.2 +9.1 63 +16 +16 1014.9 1001.0
18 9.09 ЮВ 2 50 км 9/0
[]
+14.1 +9.4 73 +14 +14 1015.0 1001.0 +11.3 +18.5
19 9.09 Ю 1 45 км 10/0
[]
+13.2 +9.8 80 +13 +13 1015.5 1001.4
20 9.09 ЮЗ 1 50 км 10/0
[]
+12.1 +9.7 85 +12 +12 1015.7 1001.6
21 9.09 штиль 0 30 км 10/0
[]
+11.2 +10.2 94 +10 +10 1015.9 1001.7
22 9.09 В 1 27 км 10/0
[]
+9.8 +8.9 94 +9 +9 1016.1 1001.8
23 9.09 ЮВ 1 28 км 10/0
[]
+8.8 +8.2 96 +8 +8 1016.1 1001.8
00 10.09 штиль 0 30 км 10/0
[]
+9.0 +8.3 95 +8 +8 1016.2 1001.9
01 10.09 СВ 1 26 км 10/0
[]
+8.9 +8.5 97 +8 +8 1016.1 1001.8
02 10.09 В 1 16 км 10/0
[]
+8.1 +7.4 95 +7 +7 1016.0 1001.7
03 10.09 Ю 1 23 км 10/0
[]
+7.7 +7.2 97 +7 +7 1016.3 1001.9
04 10.09 В 1-2
{2}
20 км 10/0
[]
+7.7 +7.1 96 +7 +7 1016.1 1001.7
05 10.09 З 1 25 км 10/0
[]
+7.3 +6.9 97 +6 +6 1016.4 1002.0
06 10.09 ЮВ 1 25 км 10/0
[]
+8.2 +7.3 94 +7 +7 1016.9 1002.5 +6.9 +14.0
07 10.09 СВ 2 30 км 8/0
[]
+11.1 +8.0 81 +10 +11 1017.1 1002.9
08 10.09 СВ 2 40 км 4/0
[]
+13.4 +8.3 71 +13 +16 1017.3 1003.2
09 10.09 СВ 3 28 км 1/0
[]
+16.3 +9.8 65 +16 +22 1017.6 1003.6
10 10.09 СВ 4-6
{6}
35 км 1/0
[]
+18.5 +9.6 56 +19 +25 1017.5 1003.6
11 10.09 СВ 4-7
{7}
50 км 3/0
[]
+19.0 +9.0 52 +20 +26 1017.1 1003.3
12 10.09 СВ 4 50 км 8/8 1500 м
[]
+19.8 +7.6 45 +21 +22 комфорт 1017.3 1003.5
13 10.09 В 3 >70 км 8/8 1500 м
[]
+20.0 +7.0 43 +21 +23 комфорт 1017.5 1003.7
14 10.09 С 3-4
{7}
>70 км 10/0
[]
+21.0 +7.6 42 +23 +26 комфорт 1017.3 1003.6
15 10.09 С 3 65 км 10/0
[]
+20.8 +7.4 42 +22 +24 комфорт 1017.5 1003.7
16 10.09 С 4-5
{5}
60 км 10/0
[]
+20.5 +6.9 41 +22 +22 комфорт 1017.8 1004.0
17 10.09 С 3 >70 км 10/0
[]
+19.8 +7.0 43 +21 +21 комфорт 1018.2 1004.4
18 10.09 СВ 2 55 км 10/0
[]
+17.5 +8.4 55 +18 +18 1018.7 1004.8 +8.4 +21.2
19 10.09 СВ 1-1
{2}
60 км 9/0
[]
+13.9 +9.7 76 +14 +14 1019.7 1005.6
20 10.09 В 1-2
{2}
55 км ясно +12.3 +9.0 80 +12 +12 1020.4 1006.2
21 10.09 ЮВ 1-1
{2}
45 км ясно +11.0 +9.2 89 +11 +11 1020.6 1006.3
22 10.09 штиль 0-1
{2}
35 км ясно +9.8 +8.9 94 +9 +9 1021.0 1006.7
23 10.09 ЮВ 1-2
{2}
30 км ясно +9.1 +8.3 95 +8 +8 1021.4 1007.0
00 11.09 штиль 0 25 км ясно +8.7 +8.1 96 +8 +8 1021.7 1007.3
01 11.09 В 1-1
{1}
23 км ясно +8.1 +7.6 97 +7 +7 1021.7 1007.3
02 11.09 штиль 0-1
{1}
28 км ясно +7.7 +7.2 97 +7 +7 1022.0 1007.5
03 11.09 ЮВ 1-1
{1}
26 км ясно +7.0 +6.3 95 +6 +6 1022.0 1007.5
04 11.09 штиль 0-1
{1}
23 км ясно +6.6 +6.0 96 +6 +6 1022.6 1008.1
05 11.09 ЮВ 1-1
{1}
22 км ясно +5.9 +5.4 97 +5 +5 1023.6 1009.0
06 11.09 ЮЗ 1 17 км ясно +7.1 +6.3 95 +6 +6 1024.0 1009.5 +5.8 +17.5
07 11.09 штиль 0-1
{1}
28 км ясно +11.8 +9.2 84 +11 +14 1024.2 1009.9
08 11.09 Ю 2-2
{2}
30 км ясно +13.2 +9.4 78 +13 +17 1024.8 1010.6
09 11.09 ЮЗ 3 50 км ясно +15.5 +10.5 72 +15 +21 1024.8 1010.7
10 11.09 ЮЗ 2-4
{4}
40 км ясно +18.2 +10.6 61 +19 +28 1024.6 1010.6
11 11.09 ЮЗ 2-3
{4}
45 км ясно +19.9 +10.1 53 +22 +32 комфорт 1024.1 1010.2
12 11.09 З 2 60 км 3/0
[]
+21.2 +6.8 39 +22 +31 комфорт 1024.0 1010.2
13 11.09 З 4-5
{7}
>70 км 1/0
[]
+22.2 +7.5 39 +23 +29 комфорт 1023.9 1010.1
14 11.09 ЮЗ 5-7
{8}
65 км 10/0
[]
+21.3 +8.9 45 +23 +24 комфорт 1023.8 1010.0
15 11.09 ЮЗ 4 55 км 10/0
[]
+20.5 +8.1 45 +22 +23 комфорт 1024.4 1010.5
16 11.09 ЮЗ 3 60 км в посл. час дождь 10/0 2000 м
[]
+19.9 +9.4 51 +21 +22 комфорт 1024.8 1010.9
17 11.09 ЮЗ 2 50 км в посл. час дождь 10/0 2000 м
[]
+19.2 +10.3 56 +21 +21 комфорт 1025.0 1011.1
18 11.09 Ю 2 55 км в посл. час дождь 10/0
[]
+18.4 +10.3 59 +19 +19 1025.3 1011.3 +7.1 +22.4 0.0
19 11.09 Ю 1 55 км 10/0
[]
+17.6 +10.4 63 +19 +19 1025.9 1011.9
20 11.09 ЮЗ 2 50 км 10/0 2000 м
[]
+16.7 +10.9 69 +17 +17 1026.8 1012.7
21 11.09 ЮЗ 2 50 км 10/10 1500 м
[]
+16.6 +11.2 70 +17 +17 1026.9 1012.8
22 11.09 Ю 4 65 км в посл. час морось 9/9 1500 м
[]
+17.9 +9.8 59 +18 +18 1027.0 1013.0
23 11.09 ЮЗ 3 50 км 10/10 1500 м
[]
+16.6 +11.2 70 +16 +16 1027.3 1013.2
00 12.09 ЮЗ 3 50 км в посл. час дождь {морось} 10/10 1500 м
[]
+16.8 +10.8 68 +17 +17 1027.7 1013.6 0.0
01 12.09 ЮЗ 3-4
{4}
55 км 10/10 1440 м
[]
+17.0 +11.1 68 +17 +17 1027.9 1013.8
02 12.09 ЮЗ 4 50 км 10/10 1500 м
[]
+17.2 +11.0 67 +17 +17 1028.0 1013.9
03 12.09 ЮЗ 4 55 км 9/9 1500 м
[]
+16.9 +11.1 69 +16 +16 1028.2 1014.1
04 12.09 ЮЗ 4-5
{5}
55 км 10/10 1500 м
[]
+16.5 +11.2 71 +16 +16 1028.3 1014.2
05 12.09 ЮЗ 4 60 км 8/8 1500 м
[]
+15.9 +10.5 70 +15 +15 1028.6 1014.5
06 12.09 ЮЗ 3 50 км 10/10 1500 м
[]
+15.9 +10.6 71 +15 +15 1029.3 1015.2 +15.8 +18.4 0.0
07 12.09 ЮЗ 4 60 км 10/10 1470 м
[]
+17.1 +10.6 66 +17 +17 1029.7 1015.6
08 12.09 ЮЗ 4-6
{6}
>70 км 10/10 1500 м
[]
+17.8 +10.3 61 +18 +18 1030.7 1016.6
09 12.09 ЮЗ 5 55 км 10/10 1500 м
[]
+18.7 +10.6 59 +19 +19 1031.0 1017.0
10 12.09 ЮЗ 5-7
{8}
60 км 10/10 1500 м
[]
+19.6 +10.0 54 +21 +21 комфорт 1031.4 1017.4
11 12.09 ЮЗ 5 60 км 10/10 1350 м
[]
+21.9 +11.8 53 +24 +24 комфорт 1030.9 1017.0
12 12.09 ЮЗ 5 60 км 5/5 1500 м
[]
+22.2 +11.6 51 +24 +27 комфорт 1030.6 1016.8
13 12.09 Ю 4-7
{7}
60 км 8/8 1500 м
[]
+23.8 +11.9 47 +25 +27 комфорт 1030.4 1016.6
14 12.09 ЮЗ 4-5
{6}
50 км 6/6 1500 м
[]
+24.5 +12.2 46 +26 +28 жарко 1030.0 1016.3
15 12.09 ЮЗ 2 >70 км 3/3 1470 м
[]
+24.8 +12.6 47 +27 +29 жарко 1029.7 1016.0
16 12.09 ЮЗ 2-3
{6}
55 км 10/10 1500 м
[]
+23.9 +12.7 49 +26 +26 жарко 1029.4 1015.7
17 12.09 ЮЗ 2-2
{3}
60 км 4/4 1500 м
[]
+23.6 +13.4 53 +26 +26 жарко 1029.7 1015.9
18 12.09 ЮВ 1 65 км 1/1 1500 м
[]
+20.3 +14.6 70 +24 +24 комфорт 1029.8 1015.9 +15.9 +24.9
19 12.09 ЮВ 1-1
{1}
60 км ясно +17.5 +14.6 83 +19 +19 1030.3 1016.3
20 12.09 ЮЗ 1-1
{1}
55 км ясно +15.7 +14.0 90 +16 +16 1030.8 1016.7
21 12.09 Ю 2 55 км 6/6 1440 м
[]
+15.3 +13.8 91 +15 +15 1031.1 1016.9
22 12.09 ЮЗ 1-1
{3}
55 км 5/0
[]
+14.8 +13.7 93 +15 +15 1031.0 1016.8
23 12.09 Ю 1 45 км 9/0
[]
+14.2 +13.3 94 +14 +14 1031.0 1016.8
00 13.09 Ю 1 30 км 9/0
[]
+13.3 +12.8 97 +13 +13 1031.3 1017.0
01 13.09 Ю 1 40 км 8/0
[]
+12.7 +12.0 96 +13 +13 1031.4 1017.1
02 13.09 ЮЗ 2 35 км 9/0
[]
+12.5 +11.9 96 +11 +11 1031.3 1017.0
03 13.09 Ю 2 45 км 9/0
[]
+13.0 +12.0 94 +12 +12 1031.3 1017.0
04 13.09 ЮЗ 2-2
{3}
45 км 6/0
[]
+13.2 +12.0 92 +12 +12 1031.2 1016.9
05 13.09 ЮЗ 1-2
{3}
45 км 1/0
[]
+12.8 +11.8 94 +13 +13 1031.7 1017.4
06 13.09 ЮЗ 2 >70 км 4/0
[]
+14.2 +12.6 90 +14 +14 1032.0 1017.8 +12.0 +20.1
07 13.09 ЮЗ 3-4
{5}
60 км ясно +16.3 +13.1 81 +16 +17 1031.9 1017.8
08 13.09 Ю 3-4
{4}
40 км ясно +18.4 +13.9 75 +19 +23 1032.3 1018.3
09 13.09 Ю 2 45 км 9/9 870 м
[]
+19.8 +14.6 72 +22 +23 комфорт 1032.6 1018.6
10 13.09 Ю 2-3
{4}
55 км 3/3 720 м
[]
+21.3 +15.1 68 +24 +31 комфорт 1032.4 1018.5
11 13.09 СЗ 2 65 км 9/9 800 м
[]
+22.4 +14.0 59 +26 +27 жарко 1032.0 1018.2
12 13.09 Ю 2 60 км 9/9 960 м
[]
+22.4 +14.4 61 +26 +27 жарко 1031.8 1018.0
13 13.09 С 1-2
{4}
>70 км 9/9 1170 м
[]
+23.7 +13.9 54 +26 +27 жарко 1031.2 1017.4
14 13.09 С 2 60 км 6/6 1200 м
[]
+24.1 +14.2 54 +27 +29 жарко 1031.0 1017.2
15 13.09 С 3 65 км 9/9 1300 м
[]
+23.5 +14.5 57 +26 +26 жарко 1031.0 1017.2
16 13.09 С 4-6
{6}
50 км 6/6 1300 м
[]
+23.1 +14.0 57 +27 +27 душно 1030.9 1017.1
17 13.09 С 4-5
{6}
65 км 8/8 1320 м
[]
+22.7 +13.4 56 +26 +26 жарко 1031.0 1017.2
18 13.09 СВ 3 65 км 9/9 1000 м
[]
+21.2 +14.0 63 +24 +24 комфорт 1031.0 1017.1 +14.2 +24.3
19 13.09 СВ 2-2
{3}
65 км ясно +17.8 +14.3 80 +18 +18 1031.6 1017.5
20 13.09 СВ 1-1
{2}
55 км 3/3 1500 м
[]
+16.3 +14.3 88 +17 +17 1031.7 1017.6
21 13.09 В 1 50 км 5/5 1500 м
[]
+15.4 +13.9 91 +16 +16 1032.0 1017.8
22 13.09 СВ 2-2
{2}
45 км 1/1 1500 м
[]
+15.9 +14.0 88 +16 +16 1031.9 1017.7
23 13.09 СВ 1-2
{3}
40 км 4/0
[]
+15.3 +13.8 91 +16 +16 1031.9 1017.7
00 14.09 С 3 60 км 5/0
[]
+16.1 +13.8 86 +16 +16 1031.8 1017.7
01 14.09 СВ 2 45 км 5/5 1230 м
[]
+16.0 +14.2 89 +16 +16 1032.2 1018.1
02 14.09 С 4 35 км 8/8 1500 м
[]
+15.7 +13.8 88 +15 +15 1031.7 1017.5
03 14.09 СВ 4 30 км 9/9 1500 м
[]
+15.7 +14.0 90 +15 +15 1031.5 1017.3
04 14.09 СВ 3-4
{6}
20 км ясно +14.8 +13.5 92 +14 +14 1031.3 1017.1
05 14.09 СВ 4-5
{5}
20 км 4/0
[]
+14.2 +13.0 92 +13 +13 1031.3 1017.1
06 14.09 СВ 3 23 км 3/0
[]
+13.9 +12.6 92 +13 +13 1032.1 1017.8 +13.9 +21.1
07 14.09 С 4-5
{5}
35 км 9/9 1500 м
[]
+14.8 +12.8 88 +14 +14 1032.1 1017.9
08 14.09 СВ 5 35 км 8/8 1500 м
[]
+15.9 +13.0 83 +15 +15 1032.0 1017.8
09 14.09 СВ 5 55 км 9/9 1500 м
[]
+18.0 +13.5 75 +18 +18 1031.4 1017.4
10 14.09 СВ 4-6
{7}
50 км 9/9 1500 м
[]
+20.5 +14.1 67 +23 +24 комфорт 1030.9 1017.0
11 14.09 СВ 4-7
{7}
45 км 10/0
[]
+21.8 +14.1 62 +25 +28 комфорт 1030.2 1016.4
12 14.09 С 5 55 км 9/0
[]
+23.1 +13.7 55 +26 +29 жарко 1029.6 1015.8
13 14.09 С 5 >70 км 9/0
[]
+24.2 +13.3 51 +26 +29 жарко 1028.9 1015.2
14 14.09 СВ 5 45 км 6/0
[]
+24.5 +13.0 49 +27 +29 жарко 1028.2 1014.5
15 14.09 В 3-5
{9}
45 км ясно +25.0 +13.3 48 +27 +30 жарко 1027.5 1013.8
16 14.09 В 3-5
{5}
60 км ясно +25.0 +13.1 48 +27 +28 жарко 1027.2 1013.5
17 14.09 С 4-6
{6}
55 км ясно +23.6 +13.6 53 +26 +26 жарко 1027.1 1013.4
18 14.09 С 4 65 км ясно +21.8 +13.9 61 +25 +25 комфорт 1027.2 1013.4 +14.0 +25.3
19 14.09 С 2-3
{4}
55 км ясно +19.1 +14.3 74 +21 +21 комфорт 1027.5 1013.6
20 14.09 СВ 2-2
{3}
35 км ясно +17.4 +14.1 81 +18 +18 1027.6 1013.6
21 14.09 С 2-3
{4}
35 км ясно +17.1 +13.9 81 +17 +17 1027.4 1013.4
22 14.09 С 2-4
{4}
35 км ясно +16.7 +13.7 82 +17 +17 1026.9 1012.9
23 14.09 С 2-2
{3}
45 км ясно +14.9 +12.9 88 +15 +15 1026.4 1012.3
00 15.09 С 2 45 км ясно +15.6 +12.9 84 +15 +15 1026.1 1012.0
01 15.09 СВ 2-3
{3}
35 км 5/0
[]
+14.6 +12.6 88 +14 +14 1025.9 1011.8
02 15.09 СВ 1-2
{2}
30 км 5/0
[]
+13.1 +11.7 91 +13 +13 1025.8 1011.6
03 15.09 ЮЗ 1-1
{3}
24 км ясно +12.0 +11.3 95 +12 +12 1025.8 1011.5
04 15.09 штиль 0-1
{1}
28 км ясно +11.0 +10.4 96 +10 +10 1025.4 1011.1
05 15.09 ЮВ 1-1
{1}
23 км ясно +10.3 +9.7 96 +10 +10 1025.5 1011.1
06 15.09 Ю 1 26 км ясно +10.9 +10.2 95 +10 +11 1025.7 1011.4 +10.0 +21.9
07 15.09 З 1-1
{1}
24 км ясно +14.4 +11.9 85 +15 +17 1025.6 1011.5
08 15.09 ЮЗ 2-3
{3}
26 км ясно +17.2 +14.0 81 +18 +22 1025.3 1011.3
09 15.09 З 2 30 км ясно +19.1 +13.7 71 +21 +27 комфорт 1025.3 1011.4
10 15.09 ЮЗ 3-4
{5}
50 км ясно +21.5 +14.7 65 +25 +32 комфорт 1024.9 1011.1
11 15.09 З 2-4
{5}
35 км ясно +23.1 +14.3 58 +27 +37 душно 1024.3 1010.6
12 15.09 ЮЗ 2 55 км 5/0
[]
+24.6 +14.7 54 +27 +35 жарко 1023.5 1009.9
13 15.09 ЮЗ 4-6
{6}
>70 км н/о +25.9 +14.4 49 +28 +28 жарко 1022.6 1009.0
14 15.09 ЮЗ 3-5
{7}
>70 км 9/0
[]
+26.4 +14.1 47 +29 +32 жарко 1021.9 1008.4
15 15.09 ЮЗ 3-6
{7}
60 км ясно +27.1 +14.2 45 +29 +32 жарко 1021.1 1007.6
16 15.09 Ю 3-5
{5}
50 км ясно +27.1 +13.7 44 +29 +30 жарко 1020.6 1007.1
17 15.09 ЮЗ 3-4
{5}
65 км ясно +26.3 +14.4 48 +29 +29 жарко 1020.2 1006.7
18 15.09 З 3 55 км ясно +23.5 +15.2 60 +26 +26 жарко 1020.5 1006.9 +11.0 +27.4
19 15.09 ЮЗ 1-1
{3}
40 км ясно +18.8 +15.1 79 +21 +21 комфорт 1021.2 1007.3
20 15.09 В 1-1
{1}
50 км 3/0
[]
+16.5 +14.2 86 +17 +17 1021.6 1007.6
21 15.09 Ю 1 55 км 8/0
[]
+14.9 +13.3 90 +15 +15 1021.6 1007.5
22 15.09 С 2-3
{3}
50 км н/о +14.5 +13.2 92 +14 +14 1021.8 1007.7
23 15.09 Ю 1-1
{2}
35 км 3/0
[]
+13.5 +12.8 96 +14 +14 1021.7 1007.6
00 16.09 штиль 0 29 км ясно +12.9 +12.0 94 +12 +12 1021.5 1007.3
01 16.09 В 1-1
{2}
30 км ясно +12.1 +11.5 96 +12 +12 1021.6 1007.4
02 16.09 В 1-1
{2}
30 км ясно +11.8 +11.1 95 +12 +12 1021.5 1007.3
03 16.09 штиль 0-1
{2}
22 км ясно +11.1 +10.6 97 +10 +10 1021.4 1007.1
04 16.09 Ю 1-1
{1}
27 км ясно +10.8 +10.4 97 +10 +10 1021.0 1006.7
05 16.09 В 1 29 км 9/9 1500 м
[]
+10.8 +10.4 97 +10 +10 1020.9 1006.6

 

Местоположение метеостанции Райнштеттен (Германия): широта 48.97 долгота 8.32 высота над уровнем моря 118 м.

В архиве по умолчанию представлена погода в Райнштеттене за последнюю неделю. Архивные данные за месяц целиком и за предыдущие месяцы, начиная с января 2011 года, Вы можете получить, выбрав интересующий диапазон дат из раскрывающегося списка и нажав кнопку "Ввод!".


*Определитесь, кто Вы:
робот инопланетянин человек

Внимание! Время в таблицах - всемирное. Для получения местного времени необходимо прибавить поправку, которая равна 1 ч.

Смотрите также архив погоды в соседних городах и на ближайших метеорологических станциях:

Погода в Мюлаккере (Германия) (40 км)
Погода в Вайнбите (Германия) (48 км)
Погода в Вайбштадте (Германия) (56 км)
Погода в Фройденштадте (Германия) (58 км)
Погода в Мангейме (Германия) (63 км)
Погода в Штутгарте (Германия) (66 км)
Погода в Страсбурге (Франция) (69 км)
Погода в Штутгарте (Германия) (73 км)
Погода в Ларе (Германия) (76 км)
Погода в Саарбрюккене (Германия) (92 км)

Пояснения к столбцам:

Ветер - указаны скорость ветра в м/с - средняя за 10 мин, порывы в срок и между сроками (в фигурных скобках) и направление, откуда дует ветер: С - северный, СВ - северо-восточный, В - восточный, ЮВ - юго-восточный, Ю - южный, ЮЗ - юго-западный, З - западный, СЗ - северо-западный.
Видимость - горизонтальная дальность видимости в метрах или километрах. При видимости от 1 до 10 км при отсутствии осадков обычно наблюдается дымка, при ухудшении видимости до 1 км и менее - туман. В сухую погоду видимость может ухудшаться дымом, пылью или мглою.
Явления - указаны атмосферные явления, наблюдавшиеся в срок или в последний час перед сроком; фигурными скобками обозначены явления, наблюдавшиеся между сроками (за 1-3 часа до срока); квадратными скобками обозначены град или гололедные отложения с указанием их диаметра в мм.
Облачность - указаны через наклонную черту общая и нижняя облачность в баллах и высота нижней границы облаков в метрах; квадратными скобками обозначены формы облаков: Ci - перистые, Cs - перисто-слоистые, Cc - перисто-кучевые, Ac - высококучевые, As - высокослоистые, Sc - слоисто-кучевые, Ns - слоисто-дождевые, Cu - кучевые, Cb - кучево-дождевые. Подробнее классификацию облаков см. в Атласе облаков (PDF).
T - Температура воздуха - температура, измеренная на высоте 2 м над землей.
Td - Температура точки росы - температура, при понижении до которой содержащийся в воздухе водяной пар достигнет насыщения.
f - Относительная влажность воздуха - влажноcть воздуха, измеренная на высоте 2 м над землей.
Te - Эффективная температура - температура, которую ощущает одетый по сезону человек в тени. Характеристика душности погоды. При расчете учитывается влияние влажности воздуха и скорости ветра на теплоощущения человека.
Tes - Эффективная температура на солнце - температура, которую ощущает человек, с поправкой на солнечный нагрев. Характеристика знойности погоды. Зависит от высоты солнца над горизонтом, облачности и скорости ветра. Ночью, в пасмурную погоду, а также при ветре 12 м/с и более поправка равна нулю.
P - Атмосферное давление - приведенное к уровню моря атмосферное давление.
Po - Атмосферное давление - измеренное на уровне метеостанции атмосферное давление.
Tmin - Минимальная температура - минимум температуры воздуха на высоте 2 м над землей.
Tmax - Максимальная температура - максимум температуры воздуха на высоте 2 м над землей.
R - Количество осадков - Количество выпавших осадков за период времени, мм. При наведении курсора мыши на число - период времени, за который выпало указанное количество осадков.
R24 - Количество осадков - Количество выпавших осадков за 24 часа, мм.
S - Снежный покров - Высота снежного покрова, см. При наведении курсора мыши на число - состояние снежного покрова и степень покрытия местности в баллах.